This is the latest recevied weather packets stored in our database for station/object ke5jzm-1. If no packets are shown the sender has not sent any weather packets the latest 10 day(s).
| Time | Temp. | Humidity | Pressure | Rain* | Wind** | Luminosity | Snow |
|---|---|---|---|---|---|---|---|
| 1778340231 | 24.44° C | 62% | 1013.1 hPa | 10.41 mm | - | 43 W/m² | - |
| 1778340224 | 24.44° C | 62% | 1013.1 hPa | 9.91 mm | - | 41 W/m² | - |
| 1778340212 | 24.44° C | 62% | 1013.1 hPa | 9.4 mm | - | 38 W/m² | - |
| 1778340205 | 24.44° C | 62% | 1013 hPa | 8.89 mm | - | 35 W/m² | - |
| 1778339191 | 24.44° C | 62% | 1013 hPa | 8.38 mm | - | 31 W/m² | - |
| 1778339143 | 24.44° C | 62% | 1013.1 hPa | 7.87 mm | - | 27 W/m² | - |
| 1778339136 | 24.44° C | 62% | 1013.1 hPa | 7.62 mm | - | 24 W/m² | - |
| 1778339012 | 24.44° C | 62% | 1013.2 hPa | 7.62 mm | - | 20 W/m² | - |
| 1778338952 | 24.44° C | 62% | 1013.1 hPa | 7.62 mm | - | 17 W/m² | - |
| 1778338891 | 24.44° C | 62% | 1013.1 hPa | 7.62 mm | - | 16 W/m² | - |
| 1778338833 | 24.44° C | 62% | 1013.1 hPa | 7.62 mm | - | 16 W/m² | - |
| 1778338777 | 24.44° C | 62% | 1013 hPa | 7.62 mm | - | 17 W/m² | - |
| 1778338711 | 24.44° C | 62% | 1013 hPa | 7.87 mm | - | 18 W/m² | - |
| 1778338652 | 24.44° C | 62% | 1013 hPa | 7.62 mm | - | 19 W/m² | - |
| 1778338593 | 24.44° C | 62% | 1013 hPa | 7.62 mm | - | 19 W/m² | - |
| 1778338476 | 24.44° C | 62% | 1012.9 hPa | 7.62 mm | - | 16 W/m² | - |
| 1778338412 | 24.44° C | 62% | 1012.8 hPa | 7.37 mm | - | 15 W/m² | - |
| 1778338352 | 24.44° C | 62% | 1012.8 hPa | 7.11 mm | - | 14 W/m² | - |
| 1778338291 | 24.44° C | 62% | 1012.7 hPa | 6.86 mm | - | 14 W/m² | - |
| 1778338232 | 24.44° C | 62% | 1012.8 hPa | 6.86 mm | - | 14 W/m² | - |
| 1778338175 | 24.44° C | 62% | 1012.9 hPa | 6.35 mm | - | 14 W/m² | - |
| 1778338112 | 24.44° C | 62% | 1012.9 hPa | 5.84 mm | - | 14 W/m² | - |
| 1778338052 | 24.44° C | 62% | 1013.1 hPa | 5.08 mm | - | 14 W/m² | - |
| 1778337992 | 24.44° C | 62% | 1013.2 hPa | 4.06 mm | - | 14 W/m² | - |
| 1778337932 | 24.44° C | 62% | 1013.4 hPa | 3.3 mm | - | 14 W/m² | - |
* Rain latest hour (hover to see other rain measurements)
** Current wind speed in m/s (hover to see current wind gust speed)